Weather History for ENGM - November, 2012

Change the Weather History Date:

Friday, November 23, 2012

  Actual Average Record
Temperature  
Mean Temperature 42 °F -  
Max Temperature 44 °F 30 °F 46 °F (2011)
Min Temperature 39 °F 21 °F 15 °F (2004)
Degree Days  
Heating Degree Days 24    
Moisture  
Dew Point 40 °F    
Average Humidity 92    
Maximum Humidity 100    
Minimum Humidity 80    
Precipitation  
Precipitation 0.08 in 0.09 in - ()
Sea Level Pressure  
Sea Level Pressure 29.79 in    
Wind  
Wind Speed 10 mph ()    
Max Wind Speed 17 mph    
Max Gust Speed 24 mph    
Visibility 5.6 miles    
Events Fog , Rain , Thunderstorm    
Averages and records for this station are not official NWS values.
T = Trace of Precipitation, MM = Missing Value Source: Averaged Metar Reports

Daily Weather History Graph

Daily Weather History Graph

Search for Another Location

Airport or City:

Trip Planner

Search our weather history database for the weather conditions in past years. The results will help you decide how hot, cold, wet, or windy it might be!

Date:

Astronomy

Nov. 23, 2012 Rise Set
Actual Time 8:35 AM CET 3:28 PM CET
Civil Twilight 7:43 AM CET 4:20 PM CET
Nautical Twilight 6:49 AM CET 5:14 PM CET
Astronomical Twilight 5:59 AM CET 6:04 PM CET
Moon 1:37 PM CET (11/23) 2:28 AM CET (11/23)
Length of Visible Light 8h 37m
Length of Day
6h 53m
Waxing Gibbous, 77% of the Moon is Illuminated
Nov 23
Waxing Gibbous
Nov 28
Full
Dec 6
Last Quarter
Dec 13
New
Dec 20
First Quarter

Hourly Weather History & Observations

Time (CET) Temp. Windchill Dew Point Humidity Pressure Visibility Wind Dir Wind Speed Gust Speed Precip Events Conditions
12:10 AM 39.2 °F 34.2 °F 39.2 °F 100% 29.86 in 4.3 mi SSE 6.9 mph - N/A   Overcast
12:40 AM 39.2 °F 35.0 °F 39.2 °F 100% 29.86 in 3.1 mi SSE 5.8 mph - N/A Rain Light Rain Showers
1:00 AM 40 °F - 39 °F 97%  in 5 mi SSE 2.2 mph - - Rain Light Rain
1:10 AM 39.2 °F 37.0 °F 39.2 °F 100% 29.86 in 3.1 mi SSE 3.5 mph - N/A Rain Light Rain Showers
1:40 AM 39.2 °F - 39.2 °F 100% 29.83 in 1.7 mi SE 2.3 mph - N/A Rain Light Rain Showers
2:10 AM 39.2 °F - 39.2 °F 100% 29.83 in 1.0 mi Variable 1.2 mph - N/A Rain Light Rain Showers
2:41 AM 39.2 °F - 39.2 °F 100% 29.83 in 0.6 mi Variable 2.3 mph - N/A Fog , Rain Light Rain Showers
3:14 AM 41.0 °F 38.0 °F 41.0 °F 100% 29.83 in 1.6 mi South 4.6 mph - N/A Rain Light Rain Showers
3:42 AM 42.8 °F 36.2 °F 42.8 °F 100% 29.83 in 5.6 mi South 12.7 mph - N/A   Mostly Cloudy
4:11 AM 44.6 °F 37.8 °F 44.6 °F 100% 29.83 in 5.6 mi South 15.0 mph - N/A   Mostly Cloudy
4:42 AM 44.6 °F 37.8 °F 42.8 °F 93% 29.83 in 6.2 mi South 15.0 mph - N/A   Overcast
5:11 AM 44.6 °F 37.4 °F 42.8 °F 93% 29.80 in 6.2 mi South 16.1 mph - N/A   Mostly Cloudy
5:45 AM 42.8 °F 35.1 °F 42.8 °F 100% 29.80 in 6.2 mi South 16.1 mph - N/A   Mostly Cloudy
6:11 AM 42.8 °F 35.1 °F 41.0 °F 93% 29.80 in 6.2 mi South 16.1 mph - N/A   Mostly Cloudy
6:41 AM 42.8 °F 35.1 °F 41.0 °F 93% 29.80 in 6.2 mi South 16.1 mph - N/A   Mostly Cloudy
7:00 AM 43 °F - 42 °F 92%  in 40 mi South 11.2 mph - -   Partly Cloudy
7:12 AM 42.8 °F 35.8 °F 41.0 °F 93% 29.80 in 6.2 mi South 13.8 mph - N/A   Mostly Cloudy
7:41 AM 42.8 °F 35.4 °F 41.0 °F 93% 29.80 in 6.2 mi South 15.0 mph - N/A   Mostly Cloudy
8:12 AM 42.8 °F 34.8 °F 39.2 °F 87% 29.80 in 6.2 mi SSE 17.3 mph - N/A   Mostly Cloudy
8:40 AM 42.8 °F 34.8 °F 39.2 °F 87% 29.80 in 6.2 mi South 17.3 mph - N/A   Mostly Cloudy
9:10 AM 42.8 °F 35.1 °F 39.2 °F 87% 29.80 in 6.2 mi SSE 16.1 mph - N/A   Mostly Cloudy
9:45 AM 42.8 °F 35.1 °F 39.2 °F 87% 29.83 in 6.2 mi South 16.1 mph - N/A   Mostly Cloudy
10:10 AM 42.8 °F 35.8 °F 39.2 °F 87% 29.80 in 6.2 mi SSE 13.8 mph - N/A   Mostly Cloudy
10:44 AM 42.8 °F 35.8 °F 39.2 °F 87% 29.80 in 6.2 mi South 13.8 mph - N/A   Mostly Cloudy
11:11 AM 42.8 °F 35.4 °F 39.2 °F 87% 29.80 in 6.2 mi South 15.0 mph - N/A   Mostly Cloudy
11:40 AM 42.8 °F 35.8 °F 39.2 °F 87% 29.80 in 6.2 mi South 13.8 mph - N/A   Mostly Cloudy
12:11 PM 42.8 °F 35.1 °F 39.2 °F 87% 29.80 in 6.2 mi South 16.1 mph - N/A   Mostly Cloudy
12:48 PM 42.8 °F 35.1 °F 37.4 °F 81% 29.80 in 6.2 mi South 16.1 mph - N/A Thunderstorm Mostly Cloudy
1:00 PM 42 °F - 38 °F 80%  in 16 mi South 13.4 mph - -   Overcast
1:15 PM 42.8 °F 35.8 °F 37.4 °F 81% 29.80 in 6.2 mi SSE 13.8 mph - N/A   Mostly Cloudy
1:40 PM 42.8 °F 35.4 °F 37.4 °F 81% 29.77 in 6.2 mi SSE 15.0 mph - N/A   Mostly Cloudy
2:11 PM 42.8 °F 35.4 °F 39.2 °F 87% 29.77 in 6.2 mi SSE 15.0 mph - N/A   Mostly Cloudy
2:41 PM 42.8 °F 35.8 °F 37.4 °F 81% 29.77 in 6.2 mi SSE 13.8 mph - N/A   Mostly Cloudy
3:10 PM 41.0 °F 33.1 °F 37.4 °F 87% 29.77 in 6.2 mi SSE 15.0 mph - N/A   Mostly Cloudy
3:41 PM 41.0 °F 33.9 °F 39.2 °F 93% 29.77 in 6.2 mi SSE 12.7 mph - N/A   Mostly Cloudy
4:41 PM 41.0 °F 33.1 °F 37.4 °F 87% 29.77 in 6.2 mi SSE 15.0 mph - N/A   Light Drizzle
5:10 PM 41.0 °F 33.5 °F 37.4 °F 87% 29.74 in 6.2 mi SSE 13.8 mph - N/A   Mostly Cloudy
5:41 PM 41.0 °F 33.5 °F 37.4 °F 87% 29.74 in 6.2 mi SE 13.8 mph - N/A   Mostly Cloudy
6:12 PM 41.0 °F 33.9 °F 39.2 °F 93% 29.74 in 3.7 mi SSE 12.7 mph 24.2 mph N/A   Light Drizzle
6:41 PM 41.0 °F 34.3 °F 39.2 °F 93% 29.74 in 5.0 mi SSE 11.5 mph - N/A Rain Light Rain
7:00 PM 41 °F - 39 °F 90%  in 5 mi SSE 8.9 mph - - Rain Light Rain
7:11 PM 41.0 °F 33.9 °F 39.2 °F 93% 29.74 in 6.2 mi SSE 12.7 mph - N/A Rain Light Rain
7:41 PM 41.0 °F 33.9 °F 39.2 °F 93% 29.74 in 4.3 mi SSE 12.7 mph - N/A Rain Light Rain
8:11 PM 41.0 °F 34.3 °F 39.2 °F 93% 29.74 in 3.7 mi SSE 11.5 mph - N/A Rain Light Rain
8:41 PM 41.0 °F 34.7 °F 39.2 °F 93% 29.74 in 4.3 mi SSE 10.4 mph - N/A Rain Light Rain
9:11 PM 41.0 °F 35.2 °F 39.2 °F 93% 29.77 in 6.2 mi South 9.2 mph - N/A Rain Light Rain
9:41 PM 41.0 °F 34.7 °F 39.2 °F 93% 29.77 in 6.2 mi South 10.4 mph - N/A Rain Light Rain
10:11 PM 41.0 °F 33.9 °F 39.2 °F 93% 29.77 in 6.2 mi South 12.7 mph - N/A   Mostly Cloudy
10:40 PM 41.0 °F 34.7 °F 39.2 °F 93% 29.77 in 6.2 mi SSW 10.4 mph - N/A   Mostly Cloudy
11:12 PM 41.0 °F 33.9 °F 39.2 °F 93% 29.80 in 6.2 mi SSW 12.7 mph - N/A   Mostly Cloudy
11:41 PM 41.0 °F 33.9 °F 39.2 °F 93% 29.80 in 6.2 mi SSW 12.7 mph - N/A   Mostly Cloudy